User: anonymous   Login
Location: Unspecified
(0.0000°N, 0.0000°E)
Time: 22:13:24
(UTC+00:00)
Language:

Aussat K3 - Orbit

View from above orbital plane
View from above orbital plane
View from above satellite
View from above satellite

Ground track
Ground track

The orbit data is extracted from the following two-line orbital elements,

1 18350U 87078A   16178.97404380 -.00000209 +00000-0 +00000-0 0  9997
2 18350 014.4274 021.8393 0005520 264.5343 338.0039 00.98908703010018
Epoch (UTC): 26 June 2016 23:22:37
Eccentricity: 0.0005520
inclination: 14.4274°
perigee height: 36149 km
apogee height: 36196 km
right ascension of ascending node: 21.8393°
argument of perigee: 264.5343°
revolutions per day: 0.98908703
mean anomaly at epoch: 338.0039°
orbit number at epoch: 1001

The dashed part of the orbit path shows where the satellite is in the earth's shadow,  

DLR